sat.trackr.live / text

‹ back to catalog

STARLINK-32127

NORAD 60146 · 2024-120M

PAYLOAD ACTIVE UNKNOWN

§ Identity

Operator
Country
US
Launch date
2024-06-27
Launch site
AFETR
Launch vehicle
Mass (kg)
RCS (m²)

Purposes: comms

External: N2YO · Heavens-Above · Gunter

§ Orbital elements

Epoch: 2026-09-21T20:57:38.939040Z

Period
93.85 min
Inclination
53.1595°
Eccentricity
0.0001298
Mean motion
15.34384254 rev/d
Perigee alt
461.9 km
Apogee alt
463.6 km
Semi-major
6,840.9 km
B*
1.2964e-6
RAAN
125.0648°
Arg perigee
102.3619°
Mean anomaly
257.7529°
Rev number
12,646

§ Raw data

STARLINK-321271 60146U 24120M   26264.87336735 -.00000332  00000+0  12964-5 0  99932 60146  53.1595 125.0648 0001298 102.3619 257.7529 15.34384254126460

JSON: /api/v1/satellites/60146 · /tle

For live sub-satellite position, see the globe view (requires WebGL).

§ Visibility from observer

Set your observer location to see the next 7 days of passes ≥ 10°. The values pass through the URL so the page stays shareable.

No JS? Fill the form by hand. The geolocation button needs JavaScript.